Regional Weather Roundup
Issued by NWS

Home | Current Version | Previous Version | Graphics & Text | Print | Product List | Glossary Off
Versions: 1 2 3 4 5 6 7 8 9 10 11 12 13 14 15 16 17 18 19 20 21 22 23 24 25 26 27 28 29 30 31 32 33 34 35 36 37 38 39 40 41 42 43 44 45 46 47 48 49 50

000
ASUS43 KDMX 201901
RWRIA

WEATHER ROUNDUP FOR IOWA
NATIONAL WEATHER SERVICE DES MOINES IA
200 PM CDT SUN MAY 20 2018

NOTE: "FAIR" INDICATES FEW OR NO CLOUDS BELOW 12,000 FEET WITH NO
SIGNIFICANT WEATHER AND/OR OBSTRUCTIONS TO VISIBILITY.

* - THESE STATIONS ARE NOT NWS STATIONS...THUS NOT UNDER NWS
QUALITY CONTROL.  THEY ALSO DO NOT REPORT WEATHER SUCH
AS PRECIPITATION OR FOG.

IAZ001>003-012>014-020>022-031>034-043>046-202000-
   NORTHWEST IOWA

CITY           SKY/WX    TMP DP  RH WIND       PRES   REMARKS
CARROLL *      CLOUDY   N/A N/A N/A NE10      30.14S
CHEROKEE *     CLOUDY    58  51  79 NE7       30.16F
DENISON *      CLOUDY    54  54 100 E6        30.16S
LE MARS *      CLOUDY    54  46  76 NE8       30.17S
ORANGE CITY *  CLOUDY    55  48  76 NE7       30.17F
SHELDON *      CLOUDY    55  50  82 NE9       30.16F
SIOUX CITY     CLOUDY    55  48  77 NE8       30.16F
SPENCER        CLOUDY    62  48  60 NE10      30.17S
STORM LAKE *   CLOUDY    57  52  82 NE12      30.15F
$$

IAZ055>058-069>071-079>083-090>094-202000-
   SOUTHWEST IOWA

CITY           SKY/WX    TMP DP  RH WIND       PRES   REMARKS
ATLANTIC *     CLOUDY    64  57  77 NE8G15    30.11S
AUDUBON *      CLOUDY    63  57  82 NE10      30.13F
CLARINDA *     CLOUDY    68  61  77 NE9       30.08F
COUNCIL BLFS * CLOUDY    57  57 100 N12       30.11F
CRESTON *      CLOUDY    66  59  77 NE12      30.10F
HARLAN  *      CLOUDY    57  57 100 NE8G15    30.15F
LAMONI         CLOUDY    66  62  87 NE6       30.08F
RED OAK *      CLOUDY    68  59  73 N9        30.08F
SHENANDOAH *   CLOUDY    70  59  68 NE14      30.07F
$$

IAZ047>049-059>061-072>074-084-202000-
   CENTRAL IOWA

CITY           SKY/WX    TMP DP  RH WIND       PRES   REMARKS
AMES           CLOUDY    59  55  87 NE12      30.13F
ANKENY *       CLOUDY    63  57  82 NE8       30.12F
BOONE *        CLOUDY    59  55  88 E12       30.13S
CHARITON *     CLOUDY    66  61  82 MISG      30.08F
DES MOINES     CLOUDY    66  57  72 E5        30.10F
GRINNELL*      CLOUDY    65  59  80 E8        30.13S
KNOXVILLE *    CLOUDY    68  59  73 NE8       30.08F
MARSHALLTOWN   CLOUDY    61  59  93 NE12      30.12F
NEWTON *       CLOUDY    63  59  88 NE6       30.12F
PELLA *        PTSUNNY   70  59  69 N3        30.11F
PERRY *        CLOUDY    65  56  73 E9        30.11F
$$

IAZ004>006-015-016-023>025-035-036-202000-
   NORTH CENTRAL IOWA

CITY           SKY/WX    TMP DP  RH WIND       PRES   REMARKS
ALGONA *       CLOUDY    57  50  77 E8        30.18F
CLARION *      CLOUDY    55  50  82 NE12      30.17F
ESTHERVILLE    CLOUDY    59  49  69 NE13      30.17R
FORT DODGE *   CLOUDY    57  53  86 E10       30.16F
MASON CITY     CLOUDY    55  49  80 E9        30.20S
FOREST CITY *  CLOUDY    57  50  77 E10       30.19S
WEBSTER CITY * CLOUDY    57  54  88 NE9       30.14F
IOWA FALLS *   CLOUDY    58  55  91 NE9       30.17S
$$

IAZ007>011-017>019-026>030-037>042-050>054-066-202000-
   NORTHEAST IOWA

CITY           SKY/WX    TMP DP  RH WIND       PRES   REMARKS
CEDAR RAPIDS   CLOUDY    56  54  93 E14       30.14S
CHARLES CITY * CLOUDY    55  52  88 E13       30.19S
CLINTON *      CLOUDY    59  54  83 E13       30.17F
DECORAH *      CLOUDY    54  50  87 NE9G15    30.19S
DUBUQUE        CLOUDY    54  50  86 E10       30.19S
MONTICELLO *   PTSUNNY   55  54  94 E10       30.17R
OELWEIN *      CLOUDY    57  54  88 E10G17    30.17F
WATERLOO       CLOUDY    57  54  89 E12       30.16S
$$

IAZ064-065-067-068-078-202000-
   EAST CENTRAL IOWA

CITY           SKY/WX    TMP DP  RH WIND       PRES   REMARKS
DAVENPORT      CLOUDY    61  51  70 E10       30.18F
IOWA CITY      CLOUDY    60  54  80 NE15G21   30.15S
MUSCATINE *    CLOUDY    68  57  68 E12       30.12F
QUAD CITIES    CLOUDY    66  54  65 E14       30.14F
$$

IAZ062-063-075>077-085>089-095>099-202000-
   SOUTHEAST IOWA

CITY           SKY/WX    TMP DP  RH WIND       PRES   REMARKS
BURLINGTON     CLOUDY    74  64  71 W5        30.08F
FAIRFIELD *    CLOUDY    70  68  94 NW5       30.07F
FORT MADISON * CLOUDY    72  64  78 N5        30.06F
KEOKUK *         N/A     70  66  88 VRB7G17   30.01F
OSKALOOSA *    CLOUDY    69  64  85 NE7       30.09F HAZE
CENTERVILLE *    N/A     68  68 100 CALM      30.09S
OTTUMWA        PTSUNNY   73  65  75 NE7       30.07F
WASHINGTON *   CLOUDY    70  64  83 E14       30.11F
$$

ABBREVIATIONS USED IN REMARKS
   TC - TEMPERATURES IN CELSIUS
  WCI - WIND CHILL INDEX
   HX - HEAT INDEX
  VSB - VISIBILITY
$$





USA.gov is the U.S. government's official web portal to all federal, state and local government web resources and services.